星链-30371 (STARLINK-30371 )

导读

STARLINK-30371是美国SpaceX公司星链(Starlink)星座的一员,于北京时间2023年9月1日8时发射入轨。作为低轨互联网通信卫星,它运行在约550公里近地轨道,以约7.6km/s高速飞行,为全球偏远地区提供低延迟、高速宽带互联网服务,助力实现星链“全球全域联网”的建设目标。

Basic Information
目录编号:
57735
目录名称:
STARLINK-30371
国际标识:
2023-131D
轨道中心:
EARTH
卫星名称:
星链-30371
卫星全名:
星链-30371 (STARLINK-30371 )
卫星状态:
在轨 (已飞行1021 天)
发射日期:
2023-09-01 UTC
国别 :
美国 (US)
星等 :
--
Orbit Information
数据来源 国际轨道数据 AOE轨道数据
星历时间 2026-06-18T08:00:03+0800
13小时前
查看轨道信息
2026-06-14T09:00:00+0800
4天前
查看轨道信息
半长轴 6861.18km 6863.652km
偏心率 0.0001499 0.0000668
轨道倾角 43.001° 43.003°
近地点辐角 274.255° 202.340°
升交点赤经 333.440° 355.793°
平近点角 303.350° 183.805°
近地点 482.014km 485.056km
远地点 484.072km 485.974km
周期 94.267分钟 94.318分钟
每日圈数 15.275822 15.267571
Detailed Information
固有亮度:
5
最大亮度:
0.3
卫星平台:
Starlink v2.0 mini
覆盖范围:
全球
运营商:
太空探索技术公司
运营商所在国:
美国
制造商(研发单位):
太空探索技术公司
制造商所在国:
美国
使用方式:
暂无
Satellite Introduction
星链(Starlink)计划是由太空探索技术公司(SpaceX)提出的一个巨型低轨卫星互联网星座项目,计划在2019年至2024年间在太空搭建由约1.2万颗卫星组成的“星链”网络,其中1584颗将部署在地球上空550千米处的近地轨道,并从2020年开始工作。该卫星仍在工作。
2D Orbit Map
3D Orbit Map
Orbit Altitude Analysis Chart
Orbit Inclination Analysis Chart
Orbit Comprehensive Analysis Chart
View Comprehensive Chart